Regional Weather Roundup
Issued by NWS Binghamton, NY

Home | Current Version | Previous Version | Text Only | Print | Product List | Glossary On
Versions: 1 2 3 4 5 6 7 8 9 10 11 12 13 14 15 16 17 18 19 20 21 22 23 24 25 26 27 28 29 30 31 32 33 34 35 36 37 38 39 40 41 42 43 44 45 46 47 48 49 50
000
ASUS41 KBGM 311510
RWRBGM
RWRBGM
BINGHAMTON REGIONAL WEATHER ROUNDUP
NATIONAL WEATHER SERVICE BINGHAMTON NY
1100 AM EDT THU JUL 31 2014

Note: "fair" indicates few or no clouds below 12,000 feet with no
significant weather and/or obstructions to visibility.

* = Station(s) that does not report precipitation, such as rain,
snow, etc, also no thunder or fog.

!NYZ009-015>018-022>025-036-037-044>046-055>057-062-311600
...CENTRAL NEW YORK...

CITY           SKY/WX    TMP DP  RH WIND       PRES   REMARKS
BINGHAMTON     CLOUDY    63  57  81 S9        30.08S
CORTLAND       CLOUDY    64  61  88 SW7       30.08R
DANSVILLE      MOSUNNY   69  57  65 VRB6      30.04R
ELMIRA         CLOUDY    69  57  65 SW13G21   30.05R
ITHACA         PTSUNNY   68  60  75 SW8       30.08R
HAMILTON       CLOUDY    64  59  82 S7        30.06S
MONTICELLO     PTSUNNY   66  57  72 S8        30.12R
NORWICH        CLOUDY    66  57  72 S9        30.08S
PENN YAN       PTSUNNY   68  59  73 SW9       30.04R
ROME           CLOUDY    59  55  87 CALM      30.07R
SIDNEY         CLOUDY    70  63  78 SW9       30.08R
SYRACUSE       PTSUNNY   68  60  75 SW8       30.03S
$$

!PAZ038>040-043-044-047-048-072-311600
...NORTHEAST PENNSYLVANIA...

CITY           SKY/WX    TMP DP  RH WIND       PRES   REMARKS
HAZLETON       MOSUNNY   70  57  64 S3        30.15R
SCRANTON       MOSUNNY   73  58  59 W9        30.09S
TOWANDA*       PTSUNNY   68  59  73 SW8       30.08R
$$
&&
KEY
WCI = WIND CHILL INDEX
VSB = VISIBILITY
HX  = HEAT INDEX
$$


USA.gov is the U.S. government's official web portal to all federal, state and local government web resources and services.